Retour au catalogue

STARLINK-11385

ActifCommunicationsVLEO
NORAD 62014·PAYLOAD·🇺🇸 United States

Lancé Nov 18, 2024 depuis Vandenberg Space Force Base

Loading…

Prochains Passages (prochaines 24 heures)

TLE

FraisSource: CelesTrak SupGP

Époque: Sep 14, 2026, 21:36 UTC

1 62014C 24213G   26257.90048611  .00012091  00000+0  99559-4 0  2576
2 62014  53.1577 188.6897 0001184  89.7445 161.0883 15.69713121    15

Suivez STARLINK-11385 en temps réel avec AllMySat

Download on the App Store